Regional Weather Roundup
Issued by NWS Goodland, KS

Home | Current Version | Previous Version | Text Only | Print | Product List | Glossary On
Versions: 1 2 3 4 5 6 7 8 9 10 11 12 13 14 15 16 17 18 19 20 21 22 23 24 25 26 27 28 29 30 31 32 33 34 35 36 37 38 39 40 41 42 43 44 45 46 47 48 49 50
000
ASUS43 KGLD 231908
RWRGLD

GOODLAND FORECAST AREA HOURLY WEATHER ROUNDUP
NATIONAL WEATHER SERVICE GOODLAND KS
100 PM MDT FRI JUN 23 2017

...OFFICIAL OBSERVATIONS...

CITY           SKY/WX    TMP DP  RH WIND       PRES   REMARKS
GOODLAND KS    CLOUDY    65  47  52 N7        30.21F
HILL CITY KS   CLOUDY    75  46  35 N12G21    30.15S
IMPERIAL NEB   CLOUDY    69  40  34 NW13G20   30.19F
MCCOOK NEB     MOSUNNY   75  45  34 NW16      30.14S
AKRON CO       CLOUDY    62  41  46 W7        30.26F
BURLINGTON CO  CLOUDY    66  46  48 N9        30.25F
LIMON CO       CLOUDY    57  42  57 VRB5      30.30S
$$

...UNOFFICIAL OBSERVATIONS...

CITY           SKY/WX    TMP DP  RH WIND       PRES   REMARKS
LENORA KS        N/A     74  32  21 MISG        N/A
NORTON KS      CLOUDY    75  36  23 N6        30.12F
SHARON SPRINGS   N/A     64  49  59 NE6         N/A
TRENTON NEB      N/A     71  32  23 NW9         N/A
YUMA CO        CLOUDY    64  34  32 NW10      30.24F
$$




USA.gov is the U.S. government's official web portal to all federal, state and local government web resources and services.